Location: Jastrz?bniki
(50.3667°N, 20.3833°E)
Time: 11:12:58
(UTC+00:00)

Cosmos 540 Rocket - Pass Details

Date: 05 August 2024
Orbit: 738 x 749 km, 74.1° (Epoch: 09 September)

Event Time Altitude Azimuth Distance (km) Brightness Sun altitude
Exits shadow 00:09:45 42° 217° (SW) 1,049 3.7 -20.2°
Maximum altitude 00:11:28 78° 295° (WNW) 767 3.4 -20.1°
Drops below altitude 10° 00:16:36 10° 22° (NNE) 2,265 7.2 -19.8°
Sets 00:18:58 0° 24° (NNE) 3,190 8.4 -19.6°
